Laramie, WY

2:57 PM MDT on August 22, 2017 (GMT -0600)
Laramie Regional

Weather History for KLAR - May, 2013

Change the Weather History Date:

Thursday, May 16, 2013

  Actual Average Record
Temperature  
Mean Temperature 59 °F 48 °F  
Max Temperature 73 °F 62 °F 82 °F (1964)
Min Temperature 45 °F 34 °F 18 °F (1955)
Degree Days  
Heating Degree Days 6 17  
Month to date heating degree days 311 317  
Since 1 July heating degree days 8251 8366  
Cooling Degree Days 0 0  
Month to date cooling degree days 0 0  
Year to date cooling degree days 0 0  
Growing Degree Days 8 (Base 50)    
Moisture  
Dew Point 37 °F    
Average Humidity 55    
Maximum Humidity 93    
Minimum Humidity 17    
Precipitation  
Precipitation 0.03 in 0.05 in 1.06 in (1981)
Month to date precipitation 0.50 0.77  
Year to date precipitation 2.48 3.03  
Sea Level Pressure  
Sea Level Pressure 29.73 in    
Wind  
Wind Speed 11 mph (WSW)    
Max Wind Speed 36 mph    
Max Gust Speed 45 mph    
Visibility 10 miles    
Events Rain    
T = Trace of Precipitation, MM = Missing Value Source: NWS Daily Summary

Daily Weather History Graph

Daily Weather History Graph

Search for Another Location

Airport or City:

Trip Planner

Search our weather history database for the weather conditions in past years. The results will help you decide how hot, cold, wet, or windy it might be!

Date:

Astronomy

May. 16, 2013 Rise Set
Actual Time 5:42 AM MDT 8:15 PM MDT
Civil Twilight 5:11 AM MDT 8:47 PM MDT
Nautical Twilight 4:31 AM MDT 9:27 PM MDT
Astronomical Twilight 3:47 AM MDT 10:11 PM MDT
Moon 11:19 AM MDT (5/16) 12:37 AM MDT (5/16)
Length of Visible Light 15h 36m
Length of Day
14h 33m
Waxing Crescent, 36% of the Moon is Illuminated
May 16
Waxing Crescent
May 17
First Quarter
May 24
Full
May 31
Last Quarter
Jun 8
New

Hourly Weather History & Observations

Time (MDT) Temp. Dew Point Humidity Pressure Visibility Wind Dir Wind Speed Gust Speed Precip Events Conditions
12:53 AM 48.0 °F 44.1 °F 86% 29.75 in 10.0 mi South 9.2 mph - N/A   Overcast
1:53 AM 48.9 °F 44.1 °F 83% 29.81 in 10.0 mi North 5.8 mph - N/A   Overcast
2:53 AM 46.9 °F 44.1 °F 90% 29.78 in 10.0 mi SSE 5.8 mph - N/A   Overcast
3:53 AM 48.0 °F 42.1 °F 80% 29.75 in 10.0 mi SSW 8.1 mph - N/A   Overcast
4:53 AM 50.0 °F 39.9 °F 68% 29.71 in 10.0 mi SW 15.0 mph - N/A   Partly Cloudy
5:53 AM 48.9 °F 39.0 °F 69% 29.72 in 10.0 mi WSW 9.2 mph - N/A   Clear
6:53 AM 48.9 °F 41.0 °F 74% 29.75 in 10.0 mi North - - N/A   Clear
7:53 AM 53.1 °F 41.0 °F 64% 29.75 in 10.0 mi SSE 3.5 mph - N/A   Mostly Cloudy
8:53 AM 59.0 °F 39.0 °F 48% 29.75 in 10.0 mi SSW 6.9 mph - N/A   Clear
9:53 AM 63.0 °F 37.0 °F 38% 29.72 in 10.0 mi SW 17.3 mph - N/A   Clear
10:53 AM 66.9 °F 37.0 °F 33% 29.70 in 10.0 mi WNW 12.7 mph 19.6 mph N/A   Partly Cloudy
11:53 AM 68.0 °F 34.0 °F 28% 29.70 in 10.0 mi West 12.7 mph - N/A   Scattered Clouds
12:53 PM 71.1 °F 32.0 °F 24% 29.66 in 10.0 mi West 21.9 mph 29.9 mph N/A   Clear
1:53 PM 61.0 °F 39.0 °F 44% 29.71 in 10.0 mi North 13.8 mph 26.5 mph 0.03 in Rain Light Rain
2:00 PM 64.4 °F 37.4 °F 37% 29.96 in 10.0 mi North 10.4 mph - 0.00 in   Mostly Cloudy
2:53 PM 68.0 °F 30.9 °F 25% 29.65 in 10.0 mi WNW 15.0 mph - 0.00 in   Scattered Clouds
3:27 PM 71.6 °F 24.8 °F 17% 29.92 in 10.0 mi West 18.4 mph 29.9 mph N/A   Scattered Clouds
4:53 PM 66.9 °F 34.0 °F 30% 29.64 in 10.0 mi NW 27.6 mph 32.2 mph N/A   Mostly Cloudy
5:53 PM 64.0 °F 34.0 °F 33% 29.68 in 10.0 mi North - - 0.00 in Rain Light Rain
6:53 PM 64.0 °F 35.1 °F 34% 29.68 in 10.0 mi North - - 0.00 in   Mostly Cloudy
7:53 PM 61.0 °F 35.1 °F 38% 29.69 in 10.0 mi West 10.4 mph - N/A   Mostly Cloudy
8:53 PM 53.1 °F 35.1 °F 50% 29.70 in 10.0 mi West 4.6 mph - N/A   Clear
9:53 PM 50.0 °F 35.1 °F 57% 29.73 in 10.0 mi West 9.2 mph - N/A   Partly Cloudy
10:53 PM 51.1 °F 35.1 °F 54% 29.73 in 10.0 mi Calm Calm - N/A   Clear
11:53 PM 51.1 °F 37.9 °F 61% 29.73 in 10.0 mi South 4.6 mph - N/A   Overcast